This is the latest recevied weather packets stored in our database for station/object SP3SWJ-13. If no packets are shown the sender has not sent any weather packets the latest 10 day(s).
| Time | Temp. | Humidity | Pressure | Rain* | Wind** | Luminosity | Snow |
|---|---|---|---|---|---|---|---|
| 1777637251 | 22.22° C | 33% | 1017.3 hPa | - | - | 663 W/m² | - |
| 1777636951 | 22.22° C | 33% | 1017.2 hPa | - | - | 675 W/m² | - |
| 1777636650 | 22.22° C | 33% | 1017.3 hPa | - | - | 677 W/m² | - |
| 1777636349 | 22.22° C | 34% | 1017.3 hPa | - | - | 694 W/m² | - |
| 1777636048 | 21.67° C | 34% | 1017.4 hPa | - | - | 697 W/m² | - |
| 1777635748 | 21.11° C | 34% | 1017.5 hPa | - | - | 700 W/m² | - |
| 1777635446 | 21.11° C | 35% | 1017.5 hPa | - | - | 705 W/m² | - |
| 1777635145 | 21.11° C | 36% | 1017.6 hPa | - | - | 710 W/m² | - |
| 1777634844 | 21.67° C | 35% | 1017.5 hPa | - | - | 712 W/m² | - |
| 1777634543 | 21.11° C | 36% | 1017.6 hPa | - | - | 722 W/m² | - |
| 1777634243 | 21.11° C | 36% | 1017.6 hPa | - | - | 728 W/m² | - |
| 1777633941 | 20.56° C | 36% | 1017.6 hPa | - | - | 728 W/m² | - |
| 1777633640 | 21.67° C | 36% | 1017.7 hPa | - | - | 731 W/m² | - |
| 1777633340 | 21.11° C | 36% | 1017.7 hPa | - | - | 728 W/m² | - |
| 1777633038 | 20.56° C | 38% | 1017.7 hPa | - | - | 729 W/m² | - |
| 1777632737 | 20.56° C | 37% | 1017.7 hPa | - | - | 732 W/m² | - |
| 1777632437 | 20.56° C | 36% | 1017.7 hPa | - | - | 727 W/m² | - |
| 1777632136 | 20.56° C | 38% | 1017.8 hPa | - | - | 723 W/m² | - |
| 1777631835 | 20.56° C | 37% | 1017.7 hPa | - | - | 717 W/m² | - |
| 1777631534 | 20.56° C | 38% | 1017.8 hPa | - | - | 722 W/m² | - |
| 1777631233 | 20° C | 38% | 1017.8 hPa | - | - | 722 W/m² | - |
| 1777630932 | 18.89° C | 39% | 1018 hPa | - | - | 713 W/m² | - |
| 1777630631 | 18.89° C | 40% | 1018 hPa | - | - | 705 W/m² | - |
| 1777630331 | 18.89° C | 41% | 1018.1 hPa | - | - | 701 W/m² | - |
| 1777630030 | 19.44° C | 40% | 1018.1 hPa | - | - | 699 W/m² | - |
* Rain since midnight (hover to see other rain measurements)
** Current wind speed in m/s (hover to see current wind gust speed)